Погода в Магадане

Погода в Магадане : погода сейчас, прогноз погоды и архив. Всё, что Вы хотите узнать о погоде в Магадане!

Хотите узнать прогноз погоды в Магадане? Тогда Вам сюда: Погода в Магадане

Поиск расширенной информации на нашем сайте:

Другие новости

Новости СМИ2

Главная страница сайта

Новости сайта

03.07.2017

Напоминаем, что на нашем специализированном сайте Метеоцентр.Азия вы можете получить высокодетализированные автоматические прогнозы погоды по пунктам России, СНГ и мира в авиационном формате (включающие направление и скорость ветра, видимость, явления погоды, количество и форму облачности, нижнюю и верхнюю границу облачности).

Рекомендуем: Дисконтная программа в магазине www.minisoft.com.ua.

Погода в Магадане - сегодня

Время (UTC), дата Ветер
(°,м/с) 
Видим.   Явления Облачность Т
(°С)
Тd
(°С)
f(%) Тe
(°С)
Pmin
(гПа)
dP
(гПа)
Po
(мм)
O2
(г/м3)
Тmin Tmax R s Состояние
почвы
00 22.09.18 100 (В) 20000 м    9/8 600 м кучево-дожд., средняя 
[Cb calv|Ac trans]
+8.9 +4 71 +9  1010.3  0.4  747  291           
03 22.09.18 270 (З) 20000 м    9/8 600 м кучево-дожд., средняя 
[Cb calv|Ac trans]
+10 +5.2 72 +10  1009.9  -0.3  747  289           
06 22.09.18 240 (ЮЗ) 20000 м    9/4 1000 м средняя, верхняя 
[Sc|Ac trans|Ci fib]
+9.2 +6.3 82 +9  1009.5  -0.4  747  290           
12 22.09.18 240 (ЮЗ) 20000 м    9/3 1000 м средняя 
[Sc|Ac trans]
+7.4 +4.9 84 +7  1010.5  0.1  747  292           
15 22.09.18 250 (З) 20000 м    9/3 1000 м средняя 
[Sc|Ac trans]
+6.9 +5.9 93 +7  1010.2  -0.3  747  293           
18 22.09.18 тихо ()   20000 м    9/5 1000 м средняя 
[Sc|Ac trans]
+7 +6 93 +7  1009.9  -0.3  747  292           
00 23.09.18 260 (З) 20000 м    9/3 1000 м средняя, верхняя 
[Sc|Ac trans|Ci fib]
+10.2 +6.4 77 +11  1009.6  -0.3  747  289           
03 23.09.18 260 (З) 20000 м    9/4 1000 м средняя, верхняя 
[Sc|Ac trans|Ci fib]
+10 +5.2 72 +10  1009.2  -0.4  746  289           
06 23.09.18 270 (З) 20000 м    9/3 600 м средняя, верхняя 
[Sc|Ac trans|Ci fib]
+9.1 +6 81 +9  1008.3  -0.9  746  290           
12 23.09.18 100 (В) 20000 м    6/3 600 м верхняя 
[Sc|Ci fib]
+5.7 +3.8 88 +7  1009.4  0.5  746  294           
15 23.09.18 050 (СВ) 20000 м    4/1 600 м верхняя 
[Sc|Ci fib]
+3.9 +1.6 85 +3  1009.7  0.2  747  296           
18 23.09.18 050 (СВ) 20000 м    9/4 600 м средняя, верхняя 
[Sc|Ac trans|Ci fib]
+3.4 +0.7 82 +2  1009.4  -0.4  746  297           
03 24.09.18 080 (В) 10 км  слаб. ливневой дождь  10/9 300 м кучево-дожд., средняя 
[Cb cap|Ac und]
+6.7 +5.2 90 +8  1009.5  -0.3  746  293           
06 24.09.18 100 (В) 20000 м  {ливн. осадки}  8/6 300 м кучево-дожд., средняя, верхняя 
[Cb calv|Ac trans|Ci fib]
+7.7 +4.4 80 +6  1009.5  -0.1  746  292           
12 24.09.18 050 (СВ) 20000 м    4/3 600 м верхняя 
[Sc|Ci fib]
+3.6 +2.2 91 +2  1011.7  748  297           
15 24.09.18 060 (СВ) 20000 м    4/0 верхняя 
[Ci fib]
+2.2 +1.1 92 +1  1012.1  0.3  748  299           
18 24.09.18 050 (СВ) 20000 м    ясно 
+2.3 +0.9 90 +1  1012.3  0.2  748  299           
21 24.09.18 060 (СВ) 20000 м    ясно 
+1.8 -0.1 87 1012.7  0.4  749  300  +0.9         
00 25.09.18 090 (В) 20000 м    ясно 
+7.1 +0.9 65 +8  1012.4  749  294           
03 25.09.18 120 (ЮВ) 20000 м    3/0 верхняя 
[Ci fib]
+9.3 -0.5 50 +9  1010.7  -1.6  747  291           
06 25.09.18 270 (З) 20000 м    3/1 1000 м верхняя 
[Sc|Ci fib]
+8.1 +3.2 71 +7  1009.8  -0.9  747  292           
12 25.09.18 060 (СВ) 20000 м    3/1 1000 м средняя 
[Sc|Ac trans]
+3.8 +0.1 77 +5  1010.4  747  297           
15 25.09.18 050 (СВ) 20000 м    1/0 верхняя 
[Ci fib]
+3.5 -0.9 73 +2  1010.1  -0.4  747  297           
18 25.09.18 030 (СВ) 20000 м    ясно 
+2.6 -0.9 78 +2  1010.3  0.2  747  298           
00 26.09.18 060 (СВ) 20000 м    ясно 
+8.6 -3.4 43 +9  1010.9  0.1  748  292           
Время (UTC), дата Ветер
(°,м/с) 
Видим.   Явления Облачность Т
(°С)
Тd
(°С)
f(%) Тe
(°С)
Pmin
(гПа)
dP
(гПа)
Po
(мм)
O2
(г/м3)
Тmin Tmax R s Состояние
почвы

Для получения пояснительной информации подведите курсор к названию столбца.

ПОГОДА в Магадане - архив

Всё, что Вы хотите узнать о погоде в Магадане - удобно и подробно!

Выберите нужную дату (начиная с 1 января 2015* года) и нажмите кнопку "Найти".
Будут отображены архивные сводки погоды по пункту Магадан, начиная с указанной даты.


Отображать данные в формате CSV (для использования в таблицах Excel)


Внимание! Наш архив погоды предназначен исключительно для личного некоммерческого использования в познавательных целях. Если Вам необходимы официальные справки о состоянии погоды (для производственных, юридических, коммерческих и т.п. целей), обращайтесь в органы Росгидромета.

*Примечание: данная дата относится к архиву по метеостанциям СССР (Россия, СНГ, Балтия).
Архив по метеостанциям Зарубежной Европы и Азии (кроме Китая) хранится 10 дней, по другим регионам земного шара (Китай, Африка, Америка, Австралия, Океания) - 1 день.

Магадан - район местоположения метеостанции


Название, широта, долгота, высота метеостанции:
Магадан (город) 59.6°ш. 150.8°д. 116 м над ур. моря [Российская Федерация]

Дополнительная информация

В oтличие oт бoльшинства пoгoдных сайтoв мы публикуем пoдрoбную метеoинфoрмацию в детальнoм прoфессиoнальнoм фoрмате.

Характеристики температуры и влажнoсти вoздуха измеряются на высoте 2 м в тени вдали oт зданий и деревьев.
Скoрoсть ветра измеряется на высoте 10 м (на урoвне рoста челoвека скoрoсть ветра ниже в 1.5-2 раза). Если метеoстанция нахoдится в гoрoде или в лесу, тo скoрoсть ветра занижена на 2-4 м/с пo сравнению с oткрытым местoм. Скoрoсть ветра над акватoриями крупных рек и oзёр, а также на вершинах хoлмoв на 2-5 м/с выше, чем в oбычных услoвиях.
Атмoсфернoе давление в разных тoчках местнoсти мoжет значительнo oтличаться oт давления на метеoстанции, в зависимoсти oт услoвий рельефа (при пoдъёме на 10 м давление пoнижается примернo на 1 мм рт.ст.).